ZHUHAI-1 OHS-03 (43442 NORAD) Tracking and Keplerian Element Data

This shows tracking and keplerian element data for the satellite.

Feedback or suggestion? Click here.




ElementValue
Catalog43442
NameZHUHAI-1 OHS-03
Epoch Orbit34034
Epoch Day160.16707471
Epoch Year2024
RAAN209.2755
Inclination97.1241
Eccentricity0.0001467
Argument of Perigee104.446
Mean Anonmoly255.6959
Mean Motion15.57219939
Decay Rate0.00082887
L11 43442U 18040D 24160.16707471 .00082887 00000+0 11308-2 0 9993
L22 43442 97.1241 209.2755 0001467 104.4460 255.6959 15.57219939340346



Live tracking and technical data element details for ZHUHAI-1 OHS-03 (NORAD 43442). ZHUHAI-1 OHS-03 can be tracked NOW for your location showing map with azimuth and elevation plus other details from your city location.







IsCatalogInMostPopularTable: catalog: 43442, numindb: 546
Update: records affected: 1



GetName: 43442 ZHUHAI-1 OHS-03

Hit Count: updated at: Sat, 14 Mar 2026 02:48:48 GMT